Time,TemperatureF,DewpointF,PressureIn,WindDirection,WindDirectionDegrees,WindSpeedMPH,WindSpeedGustMPH,Humidity,HourlyPrecipIn,Conditions,Clouds,dailyrainin,SoftwareType,DateUTC
2013-05-17 00:03:00,66.0,60.0,29.95,SSW,203,2.0,2.0,81,-99.99,,,-99.99,,2013-05-17 05:03:00,
2013-05-17 00:14:00,66.0,60.0,29.95,SSW,203,2.0,2.0,81,-99.99,,,-99.99,,2013-05-17 05:14:00,
2013-05-17 00:22:00,67.0,61.0,29.95,SSE,158,2.0,2.0,82,-99.99,,,-99.99,,2013-05-17 05:22:00,
2013-05-17 00:32:00,68.0,62.0,29.95,East,90,4.0,4.0,81,-99.99,,,-99.99,,2013-05-17 05:32:00,
2013-05-17 00:42:00,68.0,62.0,29.95,East,90,4.0,4.0,81,-99.99,,,-99.99,,2013-05-17 05:42:00,
2013-05-17 00:52:00,67.0,60.0,29.95,SE,135,3.0,0.0,79,-99.99,,,-99.99,,2013-05-17 05:52:00,
2013-05-17 01:01:00,67.0,60.0,29.95,WNW,293,0.0,0.0,78,-99.99,,,-99.99,,2013-05-17 06:01:00,
2013-05-17 01:11:00,67.0,60.0,29.95,WNW,293,0.0,0.0,78,-99.99,,,-99.99,,2013-05-17 06:11:00,
2013-05-17 01:21:00,65.0,59.0,29.95,South,180,1.0,2.0,80,-99.99,,,-99.99,,2013-05-17 06:21:00,
2013-05-17 01:32:00,65.0,59.0,29.95,ESE,113,1.0,2.0,80,-99.99,,,-99.99,,2013-05-17 06:32:00,
2013-05-17 01:42:00,65.0,59.0,29.95,ESE,113,1.0,2.0,80,-99.99,,,-99.99,,2013-05-17 06:42:00,
2013-05-17 01:52:00,63.0,57.0,29.95,NNE,23,0.0,0.0,80,-99.99,,,-99.99,,2013-05-17 06:52:00,
2013-05-17 02:02:00,63.0,57.0,29.95,SSE,158,1.0,1.0,81,-99.99,,,-99.99,,2013-05-17 07:02:00,
2013-05-17 02:11:00,63.0,57.0,29.95,SSE,158,1.0,1.0,81,-99.99,,,-99.99,,2013-05-17 07:11:00,
2013-05-17 02:21:00,62.0,56.0,29.95,SSE,158,0.0,0.0,82,-99.99,,,-99.99,,2013-05-17 07:21:00,
2013-05-17 02:32:00,62.0,57.0,29.95,SSE,158,1.0,1.0,83,-99.99,,,-99.99,,2013-05-17 07:32:00,
2013-05-17 02:43:00,62.0,57.0,29.95,SSE,158,1.0,1.0,83,-99.99,,,-99.99,,2013-05-17 07:43:00,
2013-05-17 02:53:00,62.0,57.0,29.95,SE,135,1.0,2.0,84,-99.99,,,-99.99,,2013-05-17 07:53:00,
2013-05-17 03:02:00,61.0,57.0,29.95,SE,135,2.0,2.0,86,-99.99,,,-99.99,,2013-05-17 08:02:00,
2013-05-17 03:12:00,61.0,57.0,29.95,SE,135,2.0,2.0,86,-99.99,,,-99.99,,2013-05-17 08:12:00,
2013-05-17 03:22:00,59.0,56.0,29.95,SSE,158,0.0,0.0,89,-99.99,,,-99.99,,2013-05-17 08:22:00,
2013-05-17 03:33:00,59.0,56.0,29.95,SSE,158,0.0,0.0,90,-99.99,,,-99.99,,2013-05-17 08:33:00,
2013-05-17 03:52:00,58.0,56.0,29.95,SSE,158,0.0,0.0,92,-99.99,,,-99.99,,2013-05-17 08:52:00,
2013-05-17 04:02:00,58.0,56.0,29.95,SSE,158,0.0,0.0,93,-99.99,,,-99.99,,2013-05-17 09:02:00,
2013-05-17 04:22:00,58.0,56.0,29.95,SSE,158,0.0,0.0,94,-99.99,,,-99.99,,2013-05-17 09:22:00,
2013-05-17 04:33:00,58.0,56.0,29.98,SE,135,1.0,1.0,94,-99.99,,,-99.99,,2013-05-17 09:33:00,
2013-05-17 04:42:00,58.0,56.0,29.98,SE,135,1.0,1.0,94,-99.99,,,-99.99,,2013-05-17 09:42:00,
2013-05-17 04:53:00,58.0,57.0,29.95,SE,135,1.0,1.0,96,-99.99,,,-99.99,,2013-05-17 09:53:00,
2013-05-17 05:03:00,58.0,57.0,29.95,South,180,0.0,0.0,97,-99.99,,,-99.99,,2013-05-17 10:03:00,
2013-05-17 05:12:00,58.0,57.0,29.95,South,180,0.0,0.0,97,-99.99,,,-99.99,,2013-05-17 10:12:00,
2013-05-17 05:23:00,58.0,57.0,29.95,SSE,158,0.0,0.0,97,-99.99,,,-99.99,,2013-05-17 10:23:00,
2013-05-17 05:32:00,57.0,56.0,29.95,NE,45,0.0,0.0,97,-99.99,,,-99.99,,2013-05-17 10:32:00,
2013-05-17 05:42:00,57.0,56.0,29.95,NE,45,0.0,0.0,97,-99.99,,,-99.99,,2013-05-17 10:42:00,
2013-05-17 05:54:00,58.0,57.0,29.98,SSE,158,0.0,0.0,97,-99.99,,,-99.99,,2013-05-17 10:54:00,
2013-05-17 06:02:00,58.0,57.0,29.98,South,180,0.0,0.0,98,-99.99,,,-99.99,,2013-05-17 11:02:00,
2013-05-17 06:12:00,58.0,57.0,29.98,South,180,0.0,0.0,98,-99.99,,,-99.99,,2013-05-17 11:12:00,
2013-05-17 06:22:00,58.0,57.0,29.98,ENE,68,0.0,0.0,98,-99.99,,,-99.99,,2013-05-17 11:22:00,
2013-05-17 06:34:00,58.0,57.0,29.98,ENE,68,0.0,0.0,98,-99.99,,,-99.99,,2013-05-17 11:34:00,
2013-05-17 06:42:00,58.0,57.0,29.98,ENE,68,0.0,0.0,98,-99.99,,,-99.99,,2013-05-17 11:42:00,
2013-05-17 06:53:00,58.0,57.0,29.98,ENE,68,0.0,0.0,98,-99.99,,,-99.99,,2013-05-17 11:53:00,
2013-05-17 07:03:00,59.0,58.0,29.98,ENE,68,0.0,0.0,98,-99.99,,,-99.99,,2013-05-17 12:03:00,
2013-05-17 07:12:00,59.0,58.0,29.98,ENE,68,0.0,0.0,98,-99.99,,,-99.99,,2013-05-17 12:12:00,
2013-05-17 07:23:00,60.0,59.0,29.98,East,90,0.0,0.0,98,-99.99,,,-99.99,,2013-05-17 12:23:00,
2013-05-17 07:32:00,62.0,61.0,30.01,SE,135,2.0,2.0,98,-99.99,,,-99.99,,2013-05-17 12:32:00,
2013-05-17 07:43:00,62.0,61.0,30.01,SE,135,2.0,2.0,98,-99.99,,,-99.99,,2013-05-17 12:43:00,
2013-05-17 07:53:00,65.0,64.0,30.01,NW,315,0.0,0.0,97,-99.99,,,-99.99,,2013-05-17 12:53:00,
2013-05-17 08:03:00,67.0,65.0,30.04,East,90,2.0,3.0,94,-99.99,,,-99.99,,2013-05-17 13:03:00,
2013-05-17 08:23:00,72.0,62.0,30.04,East,90,2.0,2.0,71,-99.99,,,-99.99,,2013-05-17 13:23:00,
2013-05-17 08:33:00,75.0,64.0,30.04,North,0,1.0,2.0,69,-99.99,,,-99.99,,2013-05-17 13:33:00,
2013-05-17 08:52:00,75.0,61.0,30.04,SE,135,2.0,3.0,61,-99.99,,,-99.99,,2013-05-17 13:52:00,
2013-05-17 09:02:00,77.0,61.0,30.04,SSE,158,4.0,4.0,57,-99.99,,,-99.99,,2013-05-17 14:02:00,
2013-05-17 09:22:00,77.0,59.0,30.04,ESE,113,2.0,2.0,53,-99.99,,,-99.99,,2013-05-17 14:22:00,
2013-05-17 09:34:00,77.0,58.0,30.04,ENE,68,2.0,2.0,52,-99.99,,,-99.99,,2013-05-17 14:34:00,
2013-05-17 09:43:00,77.0,58.0,30.04,ENE,68,2.0,2.0,52,-99.99,,,-99.99,,2013-05-17 14:43:00,
2013-05-17 09:53:00,77.0,57.0,30.01,East,90,1.0,1.0,51,-99.99,,,-99.99,,2013-05-17 14:53:00,
2013-05-17 10:03:00,77.0,57.0,30.01,East,90,2.0,3.0,50,-99.99,,,-99.99,,2013-05-17 15:03:00,
2013-05-17 10:14:00,77.0,57.0,30.01,East,90,2.0,3.0,50,-99.99,,,-99.99,,2013-05-17 15:14:00,
2013-05-17 10:25:00,79.0,59.0,30.01,East,90,2.0,2.0,50,-99.99,,,-99.99,,2013-05-17 15:25:00,
2013-05-17 10:37:00,81.0,59.0,30.01,ENE,68,2.0,2.0,48,-99.99,,,-99.99,,2013-05-17 15:37:00,
2013-05-17 10:47:00,81.0,59.0,30.01,ENE,68,2.0,2.0,48,-99.99,,,-99.99,,2013-05-17 15:47:00,
2013-05-17 10:57:00,83.0,58.0,30.01,ENE,68,3.0,3.0,43,-99.99,,,-99.99,,2013-05-17 15:57:00,
2013-05-17 11:07:00,83.0,59.0,30.01,SSE,158,3.0,3.0,45,-99.99,,,-99.99,,2013-05-17 16:07:00,
2013-05-17 11:13:00,83.0,59.0,30.01,SSE,158,3.0,3.0,45,-99.99,,,-99.99,,2013-05-17 16:13:00,
2013-05-17 11:26:00,85.0,58.0,30.01,East,90,6.0,8.0,40,-99.99,,,-99.99,,2013-05-17 16:26:00,
2013-05-17 11:37:00,85.0,58.0,30.04,SE,135,4.0,5.0,40,-99.99,,,-99.99,,2013-05-17 16:37:00,
2013-05-17 11:49:00,85.0,58.0,30.04,SE,135,4.0,5.0,40,-99.99,,,-99.99,,2013-05-17 16:49:00,
2013-05-17 11:56:00,82.0,57.0,30.01,ENE,68,4.0,4.0,42,-99.99,,,-99.99,,2013-05-17 16:56:00,
2013-05-17 12:08:00,82.0,57.0,30.01,East,90,5.0,5.0,43,-99.99,,,-99.99,,2013-05-17 17:08:00,
2013-05-17 12:18:00,82.0,57.0,30.01,East,90,5.0,5.0,43,-99.99,,,-99.99,,2013-05-17 17:18:00,
2013-05-17 12:30:00,82.0,57.0,30.01,SSE,158,6.0,8.0,43,-99.99,,,-99.99,,2013-05-17 17:30:00,
2013-05-17 12:40:00,82.0,-99.9,30.01,SE,135,7.0,7.0,45,-99.99,,,-99.99,,2013-05-17 17:40:00,
2013-05-17 12:49:00,82.0,59.0,30.01,SE,135,7.0,7.0,45,-99.99,,,-99.99,,2013-05-17 17:49:00,
2013-05-17 13:00:00,81.0,58.0,30.01,ESE,113,6.0,6.0,45,-99.99,,,-99.99,,2013-05-17 18:00:00,
2013-05-17 13:08:00,81.0,59.0,30.01,SSE,158,4.0,4.0,48,-99.99,,,-99.99,,2013-05-17 18:08:00,
2013-05-17 13:20:00,81.0,59.0,30.01,SSE,158,4.0,4.0,48,-99.99,,,-99.99,,2013-05-17 18:20:00,
2013-05-17 13:30:00,80.0,59.0,30.01,South,180,5.0,6.0,49,-99.99,,,-99.99,,2013-05-17 18:30:00,
2013-05-17 13:40:00,79.0,-99.9,29.98,East,90,4.0,4.0,49,-99.99,,,-99.99,,2013-05-17 18:40:00,
2013-05-17 13:50:00,-999.0,-99.9,29.98,East,90,4.0,4.0,49,-99.99,,,-99.99,,2013-05-17 18:50:00,
2013-05-17 14:00:00,80.0,59.0,29.98,ESE,113,4.0,4.0,48,-99.99,,,-99.99,,2013-05-17 19:00:00,
2013-05-17 14:10:00,79.0,56.0,29.98,ESE,113,5.0,5.0,46,-99.99,,,-99.99,,2013-05-17 19:10:00,
2013-05-17 14:20:00,79.0,56.0,29.98,ESE,113,5.0,5.0,46,-99.99,,,-99.99,,2013-05-17 19:20:00,
2013-05-17 14:30:00,79.0,57.0,29.98,ESE,113,4.0,4.0,47,-99.99,,,-99.99,,2013-05-17 19:30:00,
2013-05-17 14:40:00,80.0,59.0,29.98,SE,135,4.0,5.0,48,-99.99,,,-99.99,,2013-05-17 19:40:00,
2013-05-17 14:50:00,80.0,59.0,29.98,SE,135,4.0,5.0,48,-99.99,,,-99.99,,2013-05-17 19:50:00,
2013-05-17 15:01:00,-999.0,-99.9,29.98,ESE,113,6.0,6.0,45,-99.99,,,-99.99,,2013-05-17 20:01:00,
2013-05-17 15:09:00,80.0,58.0,29.98,SE,135,5.0,5.0,47,-99.99,,,-99.99,,2013-05-17 20:09:00,
2013-05-17 15:20:00,80.0,58.0,29.98,SE,135,5.0,5.0,47,-99.99,,,-99.99,,2013-05-17 20:20:00,
2013-05-17 15:30:00,81.0,58.0,30.01,SE,135,4.0,8.0,46,-99.99,,,-99.99,,2013-05-17 20:30:00,
2013-05-17 15:40:00,83.0,59.0,29.98,East,90,4.0,6.0,44,-99.99,,,-99.99,,2013-05-17 20:40:00,
2013-05-17 15:50:00,83.0,59.0,29.98,East,90,4.0,6.0,44,-99.99,,,-99.99,,2013-05-17 20:50:00,
2013-05-17 15:58:00,88.0,61.0,29.98,WSW,248,2.0,2.0,40,-99.99,,,-99.99,,2013-05-17 20:58:00,
2013-05-17 16:07:00,87.0,59.0,29.95,East,90,3.0,4.0,39,-99.99,,,-99.99,,2013-05-17 21:07:00,
2013-05-17 16:26:00,85.0,59.0,29.95,SW,225,3.0,3.0,42,-99.99,,,-99.99,,2013-05-17 21:26:00,
2013-05-17 16:39:00,87.0,58.0,29.95,ESE,113,4.0,4.0,38,-99.99,,,-99.99,,2013-05-17 21:39:00,
2013-05-17 16:58:00,87.0,57.0,29.98,West,270,2.0,2.0,36,-99.99,,,-99.99,,2013-05-17 21:58:00,
2013-05-17 17:06:00,84.0,54.0,29.95,SSE,158,3.0,5.0,36,-99.99,,,-99.99,,2013-05-17 22:06:00,
2013-05-17 17:17:00,84.0,54.0,29.95,SSE,158,3.0,5.0,36,-99.99,,,-99.99,,2013-05-17 22:17:00,
2013-05-17 17:28:00,84.0,54.0,29.95,North,0,0.0,1.0,36,-99.99,,,-99.99,,2013-05-17 22:28:00,
2013-05-17 17:38:00,84.0,53.0,29.95,ESE,113,3.0,10.0,35,-99.99,,,-99.99,,2013-05-17 22:38:00,
2013-05-17 17:47:00,84.0,53.0,29.95,ESE,113,3.0,10.0,35,-99.99,,,-99.99,,2013-05-17 22:47:00,
2013-05-17 17:55:00,83.0,54.0,29.95,ESE,113,3.0,5.0,37,-99.99,,,-99.99,,2013-05-17 22:55:00,
2013-05-17 18:04:00,82.0,54.0,29.95,SE,135,4.0,4.0,38,-99.99,,,-99.99,,2013-05-17 23:04:00,
2013-05-17 18:13:00,82.0,54.0,29.95,SE,135,4.0,4.0,38,-99.99,,,-99.99,,2013-05-17 23:13:00,
2013-05-17 18:23:00,79.0,55.0,29.95,WSW,248,1.0,0.0,43,-99.99,,,-99.99,,2013-05-17 23:23:00,
2013-05-17 18:37:00,79.0,55.0,29.95,SSW,203,1.0,2.0,44,-99.99,,,-99.99,,2013-05-17 23:37:00,
2013-05-17 18:47:00,79.0,55.0,29.95,SSW,203,1.0,2.0,44,-99.99,,,-99.99,,2013-05-17 23:47:00,
2013-05-17 18:54:00,77.0,55.0,29.95,NNE,23,1.0,1.0,46,-99.99,,,-99.99,,2013-05-17 23:54:00,
2013-05-17 19:02:00,77.0,56.0,29.95,ESE,113,1.0,1.0,48,-99.99,,,-99.99,,2013-05-18 00:02:00,
2013-05-17 19:14:00,77.0,56.0,29.95,ESE,113,1.0,1.0,48,-99.99,,,-99.99,,2013-05-18 00:14:00,
2013-05-17 19:22:00,76.0,57.0,29.95,ESE,113,1.0,1.0,51,-99.99,,,-99.99,,2013-05-18 00:22:00,
2013-05-17 19:33:00,76.0,55.0,29.95,East,90,2.0,2.0,49,-99.99,,,-99.99,,2013-05-18 00:33:00,
2013-05-17 19:44:00,76.0,55.0,29.95,East,90,2.0,2.0,49,-99.99,,,-99.99,,2013-05-18 00:44:00,
2013-05-17 19:54:00,75.0,59.0,29.95,ESE,113,6.0,9.0,58,-99.99,,,-99.99,,2013-05-18 00:54:00,
2013-05-17 20:02:00,73.0,62.0,29.98,East,90,8.0,8.0,68,-99.99,,,-99.99,,2013-05-18 01:02:00,
2013-05-17 20:13:00,73.0,62.0,29.98,East,90,8.0,8.0,68,-99.99,,,-99.99,,2013-05-18 01:13:00,
2013-05-17 20:24:00,73.0,63.0,29.98,East,90,4.0,7.0,72,-99.99,,,-99.99,,2013-05-18 01:24:00,
2013-05-17 20:32:00,72.0,62.0,29.98,East,90,8.0,9.0,72,-99.99,,,-99.99,,2013-05-18 01:32:00,
2013-05-17 20:42:00,72.0,62.0,29.98,East,90,8.0,9.0,72,-99.99,,,-99.99,,2013-05-18 01:42:00,
2013-05-17 20:52:00,71.0,63.0,29.98,East,90,5.0,5.0,77,-99.99,,,-99.99,,2013-05-18 01:52:00,
2013-05-17 21:02:00,71.0,63.0,29.98,East,90,4.0,4.0,77,-99.99,,,-99.99,,2013-05-18 02:02:00,
2013-05-17 21:12:00,71.0,63.0,29.98,East,90,4.0,4.0,77,-99.99,,,-99.99,,2013-05-18 02:12:00,
2013-05-17 21:22:00,71.0,65.0,29.98,East,90,5.0,5.0,80,-99.99,,,-99.99,,2013-05-18 02:22:00,
2013-05-17 21:31:00,70.0,64.0,30.01,ESE,113,3.0,3.0,81,-99.99,,,-99.99,,2013-05-18 02:31:00,
2013-05-17 21:42:00,70.0,64.0,30.01,ESE,113,3.0,3.0,81,-99.99,,,-99.99,,2013-05-18 02:42:00,
2013-05-17 21:54:00,70.0,65.0,30.01,ESE,113,4.0,4.0,83,-99.99,,,-99.99,,2013-05-18 02:54:00,
2013-05-17 22:02:00,69.0,64.0,30.01,ESE,113,3.0,3.0,85,-99.99,,,-99.99,,2013-05-18 03:02:00,
2013-05-17 22:12:00,69.0,64.0,30.01,ESE,113,3.0,3.0,85,-99.99,,,-99.99,,2013-05-18 03:12:00,
2013-05-17 22:22:00,69.0,65.0,30.01,SSW,203,4.0,4.0,86,-99.99,,,-99.99,,2013-05-18 03:22:00,
2013-05-17 22:32:00,69.0,65.0,30.01,ESE,113,4.0,6.0,87,-99.99,,,-99.99,,2013-05-18 03:32:00,
2013-05-17 22:43:00,69.0,65.0,30.01,ESE,113,4.0,6.0,87,-99.99,,,-99.99,,2013-05-18 03:43:00,
2013-05-17 22:53:00,69.0,65.0,30.01,SE,135,3.0,3.0,86,-99.99,,,-99.99,,2013-05-18 03:53:00,
2013-05-17 23:02:00,68.0,64.0,30.01,SSE,158,3.0,3.0,87,-99.99,,,-99.99,,2013-05-18 04:02:00,
2013-05-17 23:12:00,68.0,64.0,30.01,SSE,158,3.0,3.0,87,-99.99,,,-99.99,,2013-05-18 04:12:00,
2013-05-17 23:23:00,68.0,65.0,30.01,SE,135,3.0,3.0,89,-99.99,,,-99.99,,2013-05-18 04:23:00,
2013-05-17 23:33:00,67.0,64.0,30.01,SE,135,3.0,4.0,90,-99.99,,,-99.99,,2013-05-18 04:33:00,
2013-05-17 23:42:00,67.0,64.0,30.01,SE,135,3.0,4.0,90,-99.99,,,-99.99,,2013-05-18 04:42:00,
2013-05-17 23:52:00,67.0,64.0,30.01,SE,135,2.0,2.0,90,-99.99,,,-99.99,,2013-05-18 04:52:00,